sat.trackr.live / text

‹ back to catalog

STARLINK-34813

NORAD 66195 · 2025-243U

PAYLOAD ACTIVE UNKNOWN

§ Identity

Operator
Country
US
Launch date
2025-10-26
Launch site
AFETR
Launch vehicle
Mass (kg)
RCS (m²)

Purposes: comms

External: N2YO · Heavens-Above · Gunter

§ Orbital elements

Epoch: 2026-05-24T15:28:44.757408Z

Period
94.11 min
Inclination
53.1589°
Eccentricity
0.0001282
Mean motion
15.30193081 rev/d
Perigee alt
474.4 km
Apogee alt
476.1 km
Semi-major
6,853.4 km
B*
8.2714e-4
RAAN
252.3926°
Arg perigee
78.3897°
Mean anomaly
281.7248°
Rev number
3,228

§ Raw data

STARLINK-348131 66195U 25243U   26144.64496247  .00024213  00000+0  82714-3 0  99982 66195  53.1589 252.3926 0001282  78.3897 281.7248 15.30193081 32282

JSON: /api/v1/satellites/66195 · /tle

For live sub-satellite position, see the globe view (requires WebGL).

§ Visibility from observer

Set your observer location to see the next 7 days of passes ≥ 10°. The values pass through the URL so the page stays shareable.

No JS? Fill the form by hand. The geolocation button needs JavaScript.